Regional Weather Roundup
Issued by NWS

Home | Current Version | Previous Version | Graphics & Text | Print | Product List | Glossary On
Versions: 1 2 3 4 5 6 7 8 9 10 11 12 13 14 15 16 17 18 19 20 21 22 23 24 25 26 27 28 29 30 31 32 33 34 35 36 37 38 39 40 41 42 43 44 45 46 47 48 49 50
251
ASUS43 KMKX 300900
RWRWI

WISCONSIN REGIONAL WEATHER ROUNDUP
NATIONAL WEATHER SERVICE MILWAUKEE/SULLIVAN WI
400 AM CDT TUE AUG 30 2016

NOTE: "FAIR" INDICATES FEW OR NO CLOUDS BELOW 12,000 FEET WITH NO
SIGNIFICANT WEATHER AND/OR OBSTRUCTIONS TO VISIBILITY.

WIZ001-002-006>008-014>016-023>028-301000-
NORTHWEST WISCONSIN

CITY           SKY/WX    TMP DP  RH WIND       PRES   REMARKS
SUPERIOR ARPT  CLOUDY    66  65  95 SW7       30.13S
ASHLAND        CLOUDY    65  64  97 SW7       30.12F
HAYWARD        MOCLDY    62  61  96 CALM      30.15S
SIREN          CLOUDY    65  64  97 W5        30.16S
CUMBERLAND     MOCLDY    64  59  82 NW8       30.15S
RICE LAKE      MOCLDY    67  59  75 NW5       30.14F
CHETEK         NOT AVBL
LADYSMITH      CLOUDY    66  62  86 CALM      30.13F
EAU CLAIRE     NOT AVBL
MENOMONIE      LGT RAIN  67  64  91 SW7       30.14F
NEW RICHMOND   CLOUDY    67  64  91 S6        30.14R
OSCEOLA        MOCLDY    66  66 100 CALM      30.18S
$$

WIZ003>005-009-010-017-018-301000-
NORTH CENTRAL WISCONSIN

CITY           SKY/WX    TMP DP  RH WIND       PRES   REMARKS
MANITOWISH WTR NOT AVBL
ARBOR VITAE    MOCLDY    67  65  94 CALM      30.14F
WOODRUFF       MOCLDY    67  65  94 CALM      30.14F
RHINELANDER    CLOUDY    69  69 100 CALM      30.16R FOG
EAGLE RIVER    CLOUDY    67  67 100 CALM      30.13F
LAND O LAKES   MOCLDY    69  67  95 CALM      30.15F
PHILLIPS       CLOUDY    64  61  89 CALM      30.12F
TOMAHAWK       CLOUDY    67  65  95 CALM      30.16R
MEDFORD        MOCLDY    64  64 100 S6        30.14F
MERRILL        CLOUDY    69  67  94 SW3       30.15F
$$

WIZ029-030-035-036-043>047-301000-
CENTRAL WISCONSIN

CITY           SKY/WX    TMP DP  RH WIND       PRES   REMARKS
WAUSAU         CLOUDY    69  67  93 SW5       30.13F
MOSINEE        MOCLDY    66  66 100 W5        30.16F
MARSHFIELD     CLOUDY    67  64  90 SW6       30.15F
STEVENS POINT  CLOUDY    68  68 100 CALM      30.16F FOG
WAUPACA        MOCLDY    68  67  98 CALM      30.15F FOG
WAUTOMA        CLOUDY    68  67  96 CALM      30.16F
WISC RAPIDS    CLOUDY    69  69 100 W3        30.16F FOG
CAMP DOUGLAS   CLOUDY    66  66 100 W3        30.16F
$$

WIZ011>013-019>022-031-037>040-048>050-301000-
NORTHEAST WISCONSIN

CITY           SKY/WX    TMP DP  RH WIND       PRES   REMARKS
ANTIGO         CLOUDY    67  67 100 CALM      30.16F FOG
SHAWANO        MOCLDY    70  68  93 CALM      30.13F FOG
OCONTO         NOT AVBL
STURGEON BAY   PTCLDY    71  69  93 SW6       30.13F
GREEN BAY      FOG       66  66 100 CALM      30.14F VSB 1
MANITOWOC      NOT AVBL
APPLETON       MOCLDY    68  68 100 CALM      30.14F FOG
CLINTONVILLE   FOG       66  64  94 CALM      30.13F VSB 1/2
OSHKOSH        CLOUDY    70  68  93 SW3       30.15F
$$

WIZ032>034-041-042-053>061-301000-
SOUTHWEST WISCONSIN

CITY           SKY/WX    TMP DP  RH WIND       PRES   REMARKS
LA CROSSE      CLOUDY    72  72 100 W3        30.16F FOG
SPARTA         FOG       64  64 100 CALM      30.18F VSB 1/2
VIROQUA        CLOUDY    69  69 100 SW3       30.18F VSB 1/4
BOSCOBEL       FOG       72  71  97 CALM      30.16F VSB 1/4
PRAIRIE DU CHI LGT RAIN  72  71  96 CALM      30.16F VSB 1/4
PLATTEVILLE    PTCLDY    70  70 100 CALM      30.17F
$$

WIZ056-057-062-063-064-067-068-301000-
SOUTH CENTRAL WISCONSIN

CITY           SKY/WX    TMP DP  RH WIND       PRES   REMARKS
REEDSBURG      NOT AVBL
BARABOO/DELLS  PTCLDY    68  67  94 CALM      30.17F FOG
LONE ROCK      FOG       71  70  96 CALM      30.16F VSB 1/4
MINERAL POINT  CLOUDY    70  70 100 CALM      30.18F FOG
MADISON        CLOUDY    71  68  90 MISG      30.15F
MIDDLETON      CLOUDY    70  70 100 CALM      30.17F
WATERTOWN      CLOUDY    69  69 100 CALM      30.16F
MONROE         CLOUDY    70  68  94 S3        30.18F
JANESVILLE     PTCLDY    70  68  94 CALM      30.16F FOG
$$

WIZ051-052-058>065-066-070>072-301000-
SOUTHEAST WISCONSIN

CITY           SKY/WX    TMP DP  RH WIND       PRES   REMARKS
MILWAUKEE      CLOUDY    74  67  78 W5        30.15F
WAUKESHA       CLOUDY    68  64  88 CALM      30.18F
MILWAUKEE/TIMM MOCLDY    70  63  78 W5        30.16F
RACINE         MOCLDY    72  68  87 W6        30.17F
BURLINGTON     CLOUDY    66  65  99 CALM      30.16F
KENOSHA        CLOUDY    71  69  93 NW3       30.16S FOG
FOND DU LAC    CLOUDY    70  68  93 SW6       30.15F
SHEBOYGAN      CLOUDY    67  65  93 W5        30.15F
WEST BEND      CLOUDY    68  64  88 CALM      30.16F
JUNEAU         CLOUDY    68  67  97 S3        30.18F FOG
$$

LSZ147-162-301000-
LAKE SUPERIOR

STATION/POSITION TIME  TEMP    WIND        PRES    WAVE
                       AIR SEA DIR/SP/G            HT/PER
                 (UTC) (F)     (DEG/KT/KT) (MB)    (FT/S)
W MID LAKE BUOY  0750   69 67  240/ 16/ 17 1018.1S   2/ 3
DEVILS ISLAND    0800   69     240/ 14/ 17 1019.3F
SAXON HARBOR     0840   68     200/  6/ 10 1019.3F
$$

LMZ867-665-643>646-301000-
LAKE MICHIGAN

STATION/POSITION TIME  TEMP    WIND        PRES    WAVE
                       AIR SEA DIR/SP/G            HT/PER
                 (UTC) (F)     (DEG/KT/KT) (MB)    (FT/S)
CHAMBERS ISLAND  0800   72     190/  3/  6 1019.6F
S GREEN BAY BUOY 0830   73 72  230/  8/ 10 1019.8
N MID LAKE BUOY  0750   72 71  220/ 12/ 14 1019.2R   2/ 4
NORTHPORT PIER   0800   74     230/  2/  7 1019.3F
SISTER BAY       0822   75     240/ 12/ 14   N/A
KEWAUNEE LAKESHO 0800   69     310/  1/  2 1020.2F
SHEBOYGAN LAKESH 0800   71     250/  3/  5 1020.6F
PORT WASHINGTON  0840   72      CALM  /  4 1021.3F
ATWATER BUOY     0800   70     160/  2/  2   N/A
MILWAUKEE LAKESH 0810   73     270/  2/  2   N/A
S MID LAKE BUOY  0750   76 76  240/  2/  2 1020.6F   0
KENOSHA   LAKESH 0800   73     310/  2/  2 1020.7F
$$

TC  - TEMPERATURE IN CELSIUS
VSB - VISIBILITY IN STATUTE MILES
WCI - WIND CHILL INDEX
HX  - HEAT INDEX





USA.gov is the U.S. government's official web portal to all federal, state and local government web resources and services.